Home > Weather > Rosenheim > Past weeks

Flag for Germany Past Weather in Rosenheim, Bavaria, Germany — Yesterday and Last 2 Weeks

Now
74 °F

Mild.


Feels Like: 76 °F
Forecast: 59 / 80 °F
Wind: No wind

Location: Kufstein

Current Time: Jul 1, 2016 at 11:54:40 AM

Latest Report: Jul 1, 2016 at 11:00 AM


Visibility: N/A

Pressure: 30.03 "Hg

Humidity: 63%

Dew Point: 60 °F

Location of RosenheimLocation

Past Weather in Rosenheim — Graph

°F

Rosenheim Temperature Yesterday

Maximum temperature yesterday: 73 °F (at 6:00 PM)
Minimum temperature yesterday: 62 °F (at 5:00 AM)
Average temperature yesterday: 67 °F

High & Low Weather Summary for the Past Weeks

 TemperatureHumidityPressure
High89 °F (Jun 24, 3:00 PM)97% (Jun 18, 1:00 AM)30.27 "Hg (Jun 18, 1:00 AM)
Low51 °F (Jun 18, 7:00 AM)36% (Jun 24, 6:00 PM)29.44 "Hg (Jun 16, 3:00 PM)
Average65 °F75%30.05 "Hg
* Reported Jun 16 10:00 AM — Jul 1 10:00 AM, Rosenheim, Weather by CustomWeather, © 2016

Note: Actual official high and low records may vary slightly from our data, if they occured in-between our weather recording intervals... More about our weather records

Advertising

Rosenheim Weather History for the Previous 24 Hours

Scroll right to see more
 ConditionsComfort  
Time TempWeatherWind HumidityBarometerVisibility
10:00 AM
Fri, Jul 1
70 °FMild.1 mph69%30.06 "HgN/A
9:00 AM69 °FMild.2 mph74%30.08 "HgN/A
8:00 AM65 °FMild.1 mph81%30.09 "HgN/A
7:00 AM64 °FPartly sunny.1 mph86%30.09 "Hg6 mi
6:00 AM62 °FCool.1 mph91%30.09 "HgN/A
5:00 AM63 °FMild.2 mph88%30.07 "HgN/A
4:00 AM64 °FMild.1 mph85%30.06 "HgN/A
3:00 AM64 °FMild.2 mph89%30.06 "HgN/A
2:00 AM65 °FMild.2 mph87%30.06 "HgN/A
1:00 AM65 °FMild.1 mph87%30.06 "HgN/A
12:00 AM65 °FMild.1 mph88%30.06 "HgN/A
11:00 PM
Thu, Jun 30
66 °FMild.1 mph85%30.05 "HgN/A
10:00 PM67 °FSprinkles. Overcast.2 mph80%30.02 "HgN/A
9:00 PM69 °FMild.1 mph78%30.00 "HgN/A
8:00 PM70 °FMild.1 mph74%29.98 "HgN/A
7:00 PM72 °FMild.1 mph65%29.96 "HgN/A
6:00 PM73 °FMild.1 mph61%29.96 "HgN/A
4:00 PM72 °FMild.2 mph62%29.98 "HgN/A
3:00 PM71 °FMild.2 mph70%30.00 "HgN/A
2:00 PM65 °FMild.1 mph88%30.04 "HgN/A
1:00 PM65 °FFog.1 mph87%30.05 "HgN/A
12:00 PM67 °FMild.2 mph77%30.02 "HgN/A
11:00 AM66 °FMild.2 mph82%30.02 "HgN/A
Weather by CustomWeather, © 2016

See weather overviewHow to use our weather pages